Location: Bad Salzschlirf
(50.3750°N, 9.3000°E)
Time: 04:15:22
(UTC+02:00)

ISS - Pass Details

Date: 15 July 2025
Orbit: 413 x 417 km, 51.6° (Epoch: 12 July)

Event Time Altitude Azimuth Distance (km) Brightness Sun altitude
Rises 23:31:43 0° 281° (WNW) 2,354 0.7 -13.7°
Reaches altitude 10° 23:33:49 10° 283° (WNW) 1,491 -0.4 -13.9°
Maximum altitude 23:37:10 79° 10° (N) 428 -3.7 -14.1°
Enters shadow 23:39:56 14° 97° (E) 1,259 -1.7 -14.3°
